Weather History for De Queen, AR

Change the Weather History Date:

Wednesday, July 10, 2013

  Actual Average Record
Temperature  
Mean Temperature 85 °F 81 °F  
Max Temperature 98 °F 92 °F 105 °F (1978)
Min Temperature 71 °F 70 °F 58 °F (1961)
Degree Days  
Heating Degree Days 0 0  
Month to date heating degree days 0 0  
Since 1 June heating degree days 0 0  
Since 1 July heating degree days 0 0  
Cooling Degree Days 20 16  
Month to date cooling degree days 128 159  
Year to date cooling degree days 748 754  
Since 1 June cooling degree days 516 537  
Growing Degree Days 34 (Base 50)    
Moisture  
Dew Point 72 °F    
Average Humidity 70    
Maximum Humidity 100    
Minimum Humidity 39    
Precipitation  
Precipitation 0.04 in 0.14 in 1.78 in (2007)
Month to date precipitation 0.04 1.45  
Year to date precipitation 14.00 27.09  
Snow  
Snow 0.00 in - - ()
Month to date snowfall 0.0  
Since 1 June snowfall 0.0  
Since 1 July snowfall 0.0  
Snow Depth 0.00 in    
Sea Level Pressure  
Sea Level Pressure 29.97 in    
Wind  
Wind Speed 5 mph (WSW)    
Max Wind Speed 18 mph    
Max Gust Speed 25 mph    
Visibility 10 miles    
Events Rain , Thunderstorm    
T = Trace of Precipitation, MM = Missing Value Source: NWS Daily Summary

Daily Weather History Graph

Daily Weather History Graph

Search for Another Location

Airport:

Trip Planner

Search our weather history database for the weather conditions in past years. The results will help you decide how hot, cold, wet, or windy it might be!

Date:

Astronomy

Jul. 10, 2013 Rise Set
Actual Time 6:14 AM CDT 8:31 PM CDT
Civil Twilight 5:45 AM CDT 9:00 PM CDT
Nautical Twilight 5:10 AM CDT 9:35 PM CDT
Astronomical Twilight 4:32 AM CDT 10:13 PM CDT
Moon 8:27 AM CDT (7/10) 9:51 PM CDT (7/10)
Length of Visible Light 15h 14m
Length of Day
14h 16m
Waxing Crescent, 5% of the Moon is Illuminated
Jul 10
Waxing Crescent
Jul 15
First Quarter
Jul 22
Full
Jul 29
Last Quarter
Aug 6
New

Hourly Weather History & Observations

Time (CDT) Temp. Heat Index Dew Point Humidity Pressure Visibility Wind Dir Wind Speed Gust Speed Precip Events Conditions
12:53 AM 73.0 °F - 71.1 °F 93% 30.00 in 9.0 mi Calm Calm - N/A   Clear
1:53 AM 73.0 °F - 71.1 °F 93% 30.00 in 8.0 mi Calm Calm - N/A   Partly Cloudy
2:53 AM 72.0 °F - 71.1 °F 97% 30.00 in 7.0 mi Calm Calm - N/A   Clear
3:53 AM 72.0 °F - 70.0 °F 93% 30.01 in 10.0 mi Calm Calm - N/A   Scattered Clouds
4:53 AM 72.0 °F - 69.1 °F 91% 30.00 in 10.0 mi Calm Calm - N/A   Mostly Cloudy
5:53 AM 71.1 °F - 69.1 °F 93% 30.01 in 9.0 mi Calm Calm - N/A   Partly Cloudy
6:53 AM 72.0 °F - 70.0 °F 93% 30.02 in 8.0 mi East 3.5 mph - N/A   Scattered Clouds
7:53 AM 79.0 °F - 71.1 °F 77% 30.03 in 10.0 mi Calm Calm - N/A   Overcast
8:53 AM 82.0 °F 86.3 °F 71.1 °F 69% 30.04 in 10.0 mi SSW 5.8 mph - N/A   Mostly Cloudy
9:53 AM 84.9 °F 91.4 °F 73.0 °F 67% 30.04 in 10.0 mi WSW 8.1 mph - N/A   Clear
10:53 AM 89.1 °F 98.0 °F 73.9 °F 61% 30.02 in 10.0 mi West 9.2 mph - N/A   Clear
11:53 AM 91.0 °F 100.4 °F 73.9 °F 57% 30.02 in 10.0 mi West 9.2 mph - N/A   Clear
12:53 PM 93.0 °F 101.9 °F 73.0 °F 52% 30.00 in 10.0 mi West 8.1 mph - N/A   Clear
1:53 PM 95.0 °F 104.5 °F 73.0 °F 49% 29.98 in 10.0 mi SW 10.4 mph 16.1 mph N/A   Clear
2:53 PM 97.0 °F 105.5 °F 72.0 °F 44% 29.94 in 10.0 mi Variable 6.9 mph - N/A   Clear
3:53 PM 98.1 °F 105.0 °F 70.0 °F 40% 29.91 in 10.0 mi SW 10.4 mph - N/A   Clear
4:36 PM 97.0 °F 102.8 °F 69.1 °F 40% 29.92 in 10.0 mi WSW 9.2 mph - N/A Thunderstorm Clear
4:53 PM 95.0 °F 100.7 °F 69.1 °F 43% 29.90 in 10.0 mi West 5.8 mph - N/A Thunderstorm Partly Cloudy
5:02 PM 93.9 °F 100.8 °F 71.1 °F 47% 29.91 in 10.0 mi SW 4.6 mph - N/A   Clear
5:53 PM 87.1 °F 95.4 °F 73.9 °F 65% 29.91 in 10.0 mi Calm Calm - N/A   Scattered Clouds
6:53 PM 87.1 °F 95.4 °F 73.9 °F 65% 29.88 in 10.0 mi Calm Calm - 0.00 in   Clear
7:53 PM 84.9 °F 92.1 °F 73.9 °F 69% 29.90 in 10.0 mi East 4.6 mph - N/A   Clear
8:53 PM 82.0 °F 88.6 °F 75.0 °F 79% 29.90 in 10.0 mi NNE 6.9 mph - N/A   Clear
9:53 PM 81.0 °F 86.2 °F 73.9 °F 79% 29.92 in 10.0 mi NNE 4.6 mph - N/A   Clear
10:53 PM 81.0 °F 85.2 °F 72.0 °F 74% 29.95 in 10.0 mi East 8.1 mph - 0.02 in   Mostly Cloudy
11:01 PM 80.1 °F 83.8 °F 72.0 °F 76% 29.97 in 10.0 mi East 12.7 mph - N/A Thunderstorm Mostly Cloudy
11:11 PM 80.1 °F 83.6 °F 71.1 °F 74% 29.98 in 10.0 mi ENE 13.8 mph 20.7 mph N/A Thunderstorm Thunderstorm
11:44 PM 75.9 °F - 71.1 °F 85% 29.99 in 6.0 mi East 15.0 mph 25.3 mph 0.02 in Rain , Thunderstorm Light Rain
11:53 PM 75.0 °F - 71.1 °F 87% 30.00 in 10.0 mi Variable 4.6 mph 19.6 mph 0.02 in Rain , Thunderstorm Light Thunderstorms and Rain